EW5299 Weather Reports


Display with metric or nautical units.
time (UTC)temp
F
wind
direction
speed
MPH
gust
MPH
rain 1hr
in
rain 24hr
in
rain mn
in
humidity
%
barometer
mb
20260504040025 46 67 0.0 0.0 0.00 0.00 0.00 72 1015.1
20260504034520 45 67 0.0 0.0 0.00 0.00 0.00 72 1015.1
20260504033020 45 67 0.0 0.0 0.00 0.00 0.00 73 1015.1
20260504031519 44 67 0.0 1.0 0.00 0.00 0.00 72 1015.2
20260504030025 44 67 0.0 1.0 0.00 0.00 0.00 72 1015.0
20260504024519 43 67 0.0 2.0 0.00 0.00 0.00 73 1015.1
20260504023018 43 67 1.0 3.0 0.00 0.00 0.00 73 1015.1
20260504021517 44 59 0.0 2.0 0.00 0.00 0.00 73 1015.0
20260504020017 44 59 0.0 3.0 0.00 0.00 0.00 73 1014.9
20260504014524 45 59 1.0 3.0 0.00 0.00 0.00 71 1014.8
20260504013031 46 59 1.0 3.0 0.00 0.00 0.00 71 1014.7
20260504011517 47 59 1.0 3.0 0.00 0.00 0.00 68 1014.5
20260504010019 48 17 1.0 3.0 0.00 0.00 0.00 66 1014.5
20260504004517 49 17 0.0 0.0 0.00 0.00 0.00 61 1014.4
20260504003016 50 17 0.0 0.0 0.00 0.00 0.00 61 1014.2
20260504001514 52 17 1.0 2.0 0.00 0.00 0.00 56 1014.1
20260504000013 55 16 1.0 2.0 0.00 0.00 0.00 53 1014.1
20260503234513 57 5 1.0 2.0 0.00 0.00 0.00 46 1013.9
20260503233019 60 5 1.0 3.0 0.00 0.00 0.00 44 1013.9
20260503231515 62 5 1.0 3.0 0.00 0.00 0.00 44 1013.8
20260503230011 63 355 1.0 3.0 0.00 0.00 0.00 33 1013.7
20260503224510 64 336 2.0 3.0 0.00 0.00 0.00 34 1013.7
20260503223009 64 327 0.0 2.0 0.00 0.00 0.00 30 1013.6
20260503221510 64 267 2.0 7.0 0.00 0.00 0.00 30 1013.8
20260503220008 64 342 4.0 9.0 0.00 0.00 0.00 29 1013.9
20260503214506 64 315 3.0 8.0 0.00 0.00 0.00 30 1013.8
20260503213007 64 360 5.0 10.0 0.00 0.00 0.00 30 1013.9
20260503211504 63 355 2.0 11.0 0.00 0.00 0.00 33 1014.0
20260503210003 63 298 6.0 11.0 0.00 0.00 0.00 33 1014.2
20260503204602 63 347 6.0 12.0 0.00 0.00 0.00 32 1014.3
20260503203114 63 346 5.0 14.0 0.00 0.00 0.00 33 1014.3
20260503201600 62 9 5.0 12.0 0.00 0.00 0.00 34 1014.5
20260503200056 62 327 3.0 13.0 0.00 0.00 0.00 34 1014.8
20260503194557 61 61 5.0 14.0 0.00 0.00 0.00 35 1014.9
20260503193055 61 22 7.0 15.0 0.00 0.00 0.00 34 1015.3
20260503191554 61 50 5.0 10.0 0.00 0.00 0.00 37 1015.4
20260503190101 61 15 6.0 13.0 0.00 0.00 0.00 35 1015.7
20260503184548 60 9 4.0 15.0 0.00 0.00 0.00 35 1016.1
20260503183049 60 22 10.0 18.0 0.00 0.00 0.00 35 1016.1
20260503181554 59 294 9.0 16.0 0.00 0.00 0.00 38 1016.1
20260503180046 58 281 5.0 16.0 0.00 0.00 0.00 36 1016.3
20260503174540 58 30 8.0 15.0 0.00 0.00 0.00 37 1016.3
20260503173038 58 355 8.0 17.0 0.00 0.00 0.00 39 1016.5
20260503171536 57 23 2.0 17.0 0.00 0.00 0.00 38 1016.6
20260503081559 42 57 4.0 9.0 0.00 0.00 0.00 68 1014.8
20260503071547 41 113 0.0 3.0 0.00 0.00 0.00 74 1014.5
20260503054550 45 69 0.0 2.0 0.00 0.00 0.00 69 1014.0
20260503053036 46 69 0.0 2.0 0.00 0.00 0.00 68 1013.9
20260503051518 46 69 0.0 2.0 0.00 0.00 0.00 66 1013.9
20260503050015 47 69 1.0 4.0 0.00 0.00 0.00 66 1013.9
20260503044512 48 81 2.0 5.0 0.00 0.00 0.00 64 1013.9
20260503043014 48 59 2.0 6.0 0.00 0.00 0.00 63 1014.0
20260503041505 48 55 2.0 5.0 0.00 0.00 0.00 64 1013.9